DM5RC Weather Reports


time (UTC)temp
C
wind
direction
speed
KPH
gust
KPH
rain 1hr
cm
rain 24hr
cm
rain mn
cm
humidity
%
barometer
mb
20260510191825 16 103 0.0 0.0 0.00 0.00 0.00 77 1007.7
20260510191328 16 103 0.0 0.0 0.00 0.00 0.00 77 1007.7
20260510190831 16 103 0.0 0.0 0.00 0.00 0.00 77 1007.7
20260510190314 16 103 0.0 1.6 0.00 0.00 0.00 75 1007.7
20260510185815 16 103 0.0 1.6 0.00 0.00 0.00 73 1007.7
20260510185315 17 103 0.0 0.0 0.00 0.00 0.00 71 1007.7
20260510184836 17 103 0.0 1.6 0.00 0.00 0.00 71 1007.7
20260510184318 17 103 0.0 1.6 0.00 0.00 0.00 70 1007.7
20260510183820 17 103 0.0 1.6 0.00 0.00 0.00 70 1007.7
20260510183323 17 103 0.0 0.0 0.00 0.00 0.00 68 1007.7
20260510182846 17 103 0.0 0.0 0.00 0.00 0.00 67 1007.8
20260510182329 18 103 0.0 0.0 0.00 0.00 0.00 65 1007.8
20260510181321 18 103 0.0 0.0 0.00 0.00 0.00 64 1007.8
20260510180824 18 103 0.0 0.0 0.00 0.00 0.00 62 1007.8
20260510180327 18 103 0.0 0.0 0.00 0.00 0.00 60 1007.9
20260510175317 19 103 0.0 0.0 0.00 0.00 0.00 60 1007.9
20260510174818 20 103 0.0 0.0 0.00 0.00 0.00 57 1007.9
20260510174321 20 103 0.0 1.6 0.00 0.00 0.00 55 1007.9
20260510173844 20 103 0.0 1.6 0.00 0.00 0.00 54 1008.0
20260510173326 20 103 0.0 1.6 0.00 0.00 0.00 54 1008.0
20260510172828 20 103 0.0 1.6 0.00 0.00 0.00 53 1008.1
20260510172328 20 103 0.0 1.6 0.00 0.00 0.00 53 1008.2
20260510171829 20 103 0.0 1.6 0.00 0.00 0.00 53 1008.2
20260510171331 20 103 0.0 1.6 0.00 0.00 0.00 53 1008.2
20260510170814 20 103 0.0 1.6 0.00 0.00 0.00 52 1008.3
20260510170316 21 103 0.0 1.6 0.00 0.00 0.00 51 1008.3
20260510165818 21 103 0.0 1.6 0.00 0.00 0.00 51 1008.4
20260510165320 21 103 0.0 1.6 0.00 0.00 0.00 50 1008.5
20260510164823 21 103 0.0 1.6 0.00 0.00 0.00 50 1008.5
20260510164326 21 103 0.0 1.6 0.00 0.00 0.00 52 1008.6
20260510163849 21 103 0.0 1.6 0.00 0.00 0.00 51 1008.7
20260510163332 21 103 0.0 1.6 0.00 0.00 0.00 51 1008.7
20260510162814 21 48 0.0 3.2 0.00 0.00 0.00 52 1008.8
20260510162344 20 47 0.0 3.2 0.00 0.00 0.00 51 1008.9
20260510161828 20 47 1.6 3.2 0.00 0.00 0.00 50 1008.9
20260510161330 20 47 0.0 3.2 0.00 0.00 0.00 51 1008.9
20260510160831 20 47 1.6 4.8 0.00 0.00 0.00 50 1009.0
20260510160333 20 29 1.6 4.8 0.00 0.00 0.00 50 1009.1
20260510155854 20 34 3.2 3.2 0.00 0.00 0.00 50 1009.1
20260510155352 20 53 1.6 4.8 0.00 0.00 0.00 50 1009.1
20260510154813 20 55 1.6 4.8 0.00 0.00 0.00 50 1009.3
20260510154312 20 26 1.6 4.8 0.00 0.00 0.00 50 1009.4
20260510153814 21 58 1.6 3.2 0.00 0.00 0.00 49 1009.4
20260510153314 21 58 1.6 4.8 0.00 0.00 0.00 50 1009.4
20260510152814 20 58 1.6 6.4 0.00 0.00 0.00 50 1009.5
20260510152334 20 49 1.6 6.4 0.00 0.00 0.00 51 1009.5
20260510151814 20 52 3.2 6.4 0.00 0.00 0.00 50 1009.6
20260510151334 21 58 4.8 6.4 0.00 0.00 0.00 50 1009.6
20260510150816 21 52 3.2 4.8 0.00 0.00 0.00 49 1009.7
20260510150319 20 50 1.6 6.4 0.00 0.00 0.00 50 1009.7
20260510145819 20 65 3.2 6.4 0.00 0.00 0.00 51 1009.8
20260510145321 20 53 1.6 6.4 0.00 0.00 0.00 50 1009.8
20260510144823 20 13 1.6 4.8 0.00 0.00 0.00 52 1009.9
20260510144326 20 18 1.6 6.4 0.00 0.00 0.00 51 1009.9
20260510143826 20 58 4.8 8.0 0.00 0.00 0.00 51 1009.9
20260510143326 20 60 4.8 8.0 0.00 0.00 0.00 51 1010.0
20260510142825 20 38 6.4 8.0 0.00 0.00 0.00 51 1010.1
20260510141846 20 22 8.0 11.3 0.00 0.00 0.00 50 1010.2
20260510141326 21 42 6.4 9.7 0.00 0.00 0.00 50 1010.3
20260510140829 21 10 6.4 9.7 0.00 0.00 0.00 50 1010.3
20260510140332 21 53 4.8 9.7 0.00 0.00 0.00 50 1010.4
20260510135815 21 40 4.8 9.7 0.00 0.00 0.00 52 1010.4
20260510135317 20 13 4.8 11.3 0.00 0.00 0.00 51 1010.5
20260510134820 20 17 6.4 11.3 0.00 0.00 0.00 54 1010.6
20260510134321 20 46 9.7 11.3 0.00 0.00 0.00 52 1010.6
20260510133824 20 59 6.4 9.7 0.00 0.00 0.00 53 1010.7
20260510133342 20 50 6.4 11.3 0.00 0.00 0.00 51 1010.7
20260510132823 20 61 8.0 11.3 0.00 0.00 0.00 53 1010.8
20260510132327 20 61 4.8 9.7 0.00 0.00 0.00 54 1010.8
20260510131316 20 107 4.8 11.3 0.00 0.00 0.00 54 1011.0
20260510130816 20 77 4.8 9.7 0.00 0.00 0.00 53 1011.0
20260510130319 20 46 4.8 8.0 0.00 0.00 0.00 56 1011.0
20260510125813 20 54 4.8 11.3 0.00 0.00 0.00 55 1011.2
20260510125316 20 59 6.4 11.3 0.00 0.00 0.00 55 1011.1
20260510124819 20 56 6.4 11.3 0.00 0.00 0.00 54 1011.2
20260510124321 20 77 6.4 11.3 0.00 0.00 0.00 55 1011.2
20260510123824 20 50 6.4 11.3 0.00 0.00 0.00 54 1011.3
20260510123322 20 51 4.8 11.3 0.00 0.00 0.00 54 1011.4
20260510122825 20 61 8.0 11.3 0.00 0.00 0.00 52 1011.5
20260510122345 20 28 4.8 12.9 0.00 0.00 0.00 54 1011.6
20260510121827 20 46 6.4 12.9 0.00 0.00 0.00 55 1011.6
20260510121328 20 49 6.4 14.5 0.00 0.00 0.00 55 1011.7
20260510120850 20 47 8.0 14.5 0.00 0.00 0.00 56 1011.7
20260510120330 20 349 8.0 12.9 0.00 0.00 0.00 55 1011.7
20260510115322 20 39 6.4 11.3 0.00 0.00 0.00 55 1011.9
20260510114822 20 45 6.4 11.3 0.00 0.00 0.00 54 1011.8
20260510114323 20 42 8.0 11.3 0.00 0.00 0.00 55 1012.0
20260510113824 20 58 8.0 11.3 0.00 0.00 0.00 54 1012.1
20260510113344 20 42 4.8 9.7 0.00 0.00 0.00 54 1012.2
20260510112823 20 54 4.8 8.0 0.00 0.00 0.00 56 1012.2
20260510112324 20 51 3.2 9.7 0.00 0.00 0.00 58 1012.3
20260510111825 19 58 4.8 9.7 0.00 0.00 0.00 57 1012.3
20260510111328 19 76 3.2 8.0 0.00 0.00 0.00 58 1012.4
20260510110832 19 13 3.2 8.0 0.00 0.00 0.00 56 1012.4
20260510110316 19 36 4.8 12.9 0.00 0.00 0.00 57 1012.4
20260510105820 18 79 4.8 12.9 0.00 0.00 0.00 57 1012.5
20260510105320 18 53 8.0 17.7 0.00 0.00 0.00 57 1012.6
20260510104820 19 64 11.3 17.7 0.00 0.00 0.00 56 1012.5
20260510104340 19 60 3.2 12.9 0.00 0.00 0.00 58 1012.6
20260510103907 18 42 4.8 14.5 0.00 0.00 0.00 58 1012.8
20260510103323 18 53 11.3 14.5 0.00 0.00 0.00 58 1012.8
20260510102824 18 48 9.7 12.9 0.00 0.00 0.00 58 1012.8
20260510102324 19 68 6.4 11.3 0.00 0.00 0.00 58 1012.9
20260510101826 18 66 6.4 11.3 0.00 0.00 0.00 58 1012.9
20260510101329 18 60 6.4 11.3 0.00 0.00 0.00 59 1013.1
20260510100832 18 23 6.4 12.9 0.00 0.00 0.00 61 1013.1
20260510100314 18 61 6.4 12.9 0.00 0.00 0.00 59 1013.0
20260510095817 18 82 6.4 12.9 0.00 0.00 0.00 58 1013.1
20260510095320 18 39 9.7 14.5 0.00 0.00 0.00 58 1013.1
20260510094822 18 84 9.7 14.5 0.00 0.00 0.00 58 1013.2
20260510094324 19 137 1.6 9.7 0.00 0.00 0.00 57 1013.3
20260510093825 18 120 1.6 11.3 0.00 0.00 0.00 60 1013.4
20260510093349 18 28 4.8 11.3 0.00 0.00 0.00 61 1013.5
20260510092851 17 28 3.2 9.7 0.00 0.00 0.00 62 1013.5
20260510092331 17 57 4.8 9.7 0.00 0.00 0.00 61 1013.6
20260510091824 17 51 6.4 12.9 0.00 0.00 0.00 60 1013.7
20260510091347 17 45 8.0 12.9 0.00 0.00 0.00 61 1013.6
20260510090827 18 48 8.0 9.7 0.00 0.00 0.00 60 1013.7
20260510090349 18 103 4.8 11.3 0.00 0.00 0.00 61 1013.8
20260510085831 17 75 4.8 11.3 0.00 0.00 0.00 64 1013.7
20260510085353 17 35 8.0 9.7 0.00 0.00 0.00 64 1013.8
20260510084813 17 64 4.8 11.3 0.00 0.00 0.00 64 1013.9
20260510084313 16 46 8.0 11.3 0.00 0.00 0.00 63 1014.0
20260510083814 16 60 4.8 11.3 0.00 0.00 0.00 63 1014.1
20260510083315 16 42 8.0 11.3 0.00 0.00 0.00 62 1014.2
20260510082815 17 38 3.2 9.7 0.00 0.00 0.00 62 1014.1
20260510082318 16 96 4.8 11.3 0.00 0.00 0.00 63 1014.2
20260510081842 16 44 8.0 11.3 0.00 0.00 0.00 64 1014.2
20260510081319 17 53 3.2 9.7 0.00 0.00 0.00 64 1014.3
20260510080816 16 51 4.8 9.7 0.00 0.00 0.00 64 1014.3
20260510080316 16 68 3.2 11.3 0.00 0.00 0.00 65 1014.4
20260510075812 16 195 6.4 11.3 0.00 0.00 0.00 64 1014.5
20260510075313 16 148 4.8 11.3 0.00 0.00 0.00 64 1014.4
20260510074816 16 122 6.4 11.3 0.00 0.00 0.00 64 1014.4
20260510074318 16 127 4.8 11.3 0.00 0.00 0.00 65 1014.4
20260510073820 15 172 1.6 12.9 0.00 0.00 0.00 66 1014.4
20260510073322 15 141 1.6 11.3 0.00 0.00 0.00 65 1014.5
20260510072825 15 218 6.4 11.3 0.00 0.00 0.00 65 1014.6
20260510072326 15 136 4.8 14.5 0.00 0.00 0.00 66 1014.6
20260510071825 15 144 3.2 8.0 0.00 0.00 0.00 68 1014.7
20260510071324 15 143 1.6 6.4 0.00 0.00 0.00 69 1014.7
20260510070824 15 39 1.6 9.7 0.00 0.00 0.00 70 1014.8
20260510070324 14 153 3.2 11.3 0.00 0.00 0.00 69 1014.8
20260510065823 14 139 4.8 11.3 0.00 0.00 0.00 69 1014.9
20260510065323 14 115 4.8 11.3 0.00 0.00 0.00 70 1014.9
20260510064823 13 103 3.2 11.3 0.00 0.00 0.00 71 1014.9
20260510064324 13 134 4.8 12.9 0.00 0.00 0.00 71 1014.9
20260510063826 13 104 8.0 12.9 0.00 0.00 0.00 71 1014.9
20260510063329 13 150 4.8 9.7 0.00 0.00 0.00 74 1015.0
20260510062851 13 93 3.2 11.3 0.00 0.00 0.00 74 1014.9
20260510062353 12 181 3.2 11.3 0.00 0.00 0.00 75 1015.0
20260510061814 12 120 1.6 11.3 0.00 0.00 0.00 76 1015.2
20260510061317 12 135 4.8 11.3 0.00 0.00 0.00 76 1015.2
20260510060817 11 107 1.6 11.3 0.00 0.00 0.00 80 1015.1
20260510060318 11 138 3.2 8.0 0.00 0.00 0.00 80 1015.1
20260510055819 11 151 4.8 8.0 0.00 0.00 0.00 81 1015.2
20260510055319 11 93 3.2 6.4 0.00 0.00 0.00 82 1015.2
20260510054820 11 141 1.6 9.7 0.00 0.00 0.00 84 1015.3
20260510054319 10 118 3.2 11.3 0.00 0.00 0.00 84 1015.4
20260510053820 10 137 8.0 11.3 0.00 0.00 0.00 84 1015.3
20260510053321 10 102 3.2 8.0 0.00 0.00 0.00 85 1015.3
20260510052842 10 117 1.6 8.0 0.00 0.00 0.00 85 1015.3
20260510052341 10 113 3.2 6.4 0.00 0.00 0.00 85 1015.5
20260510051821 10 117 0.0 1.6 0.00 0.00 0.00 85 1015.5
20260510051322 9 113 0.0 1.6 0.00 0.00 0.00 87 1015.5
20260510050821 8 120 0.0 3.2 0.00 0.00 0.00 87 1015.5
20260510050324 8 134 0.0 3.2 0.00 0.00 0.00 88 1015.5
20260510045325 8 125 0.0 1.6 0.00 0.00 0.00 89 1015.5
20260510044824 8 131 0.0 1.6 0.00 0.00 0.00 89 1015.6
20260510044324 8 131 0.0 1.6 0.00 0.00 0.00 90 1015.7
20260510043824 7 131 0.0 3.2 0.00 0.00 0.00 91 1015.6
20260510043345 7 131 1.6 3.2 0.00 0.00 0.00 91 1015.6
20260510042825 7 115 0.0 3.2 0.00 0.00 0.00 92 1015.6
20260510042326 7 115 0.0 3.2 0.00 0.00 0.00 92 1015.6
20260510041828 7 122 0.0 1.6 0.00 0.00 0.00 93 1015.5
20260510041330 7 122 0.0 1.6 0.00 0.00 0.00 93 1015.5
20260510040831 7 122 0.0 1.6 0.00 0.00 0.00 94 1015.6
20260510040350 7 122 0.0 0.0 0.00 0.00 0.00 94 1015.5
20260510035852 6 122 0.0 0.0 0.00 0.00 0.00 94 1015.5
20260510035314 6 122 0.0 0.0 0.00 0.00 0.00 94 1015.5
20260510034816 6 122 0.0 0.0 0.00 0.00 0.00 94 1015.5
20260510034316 6 122 0.0 0.0 0.00 0.00 0.00 94 1015.5
20260510033818 6 122 0.0 0.0 0.00 0.00 0.00 94 1015.5
20260510033321 5 122 0.0 0.0 0.00 0.00 0.00 94 1015.5
20260510032822 5 122 0.0 0.0 0.00 0.00 0.00 93 1015.5
20260510032325 6 122 0.0 0.0 0.00 0.00 0.00 94 1015.5
20260510031827 6 122 0.0 1.6 0.00 0.00 0.00 94 1015.5
20260510031330 6 122 0.0 1.6 0.00 0.00 0.00 94 1015.6
20260510030831 6 122 0.0 1.6 0.00 0.00 0.00 94 1015.6
20260510030313 5 122 0.0 1.6 0.00 0.00 0.00 93 1015.7
20260510025815 5 122 0.0 1.6 0.00 0.00 0.00 93 1015.8
20260510025317 6 122 0.0 1.6 0.00 0.00 0.00 93 1015.9
20260510024839 5 122 0.0 1.6 0.00 0.00 0.00 93 1016.0
20260510024340 6 122 0.0 0.0 0.00 0.00 0.00 93 1016.0
20260510023820 6 122 0.0 1.6 0.00 0.00 0.00 92 1016.1
20260510023323 6 122 0.0 1.6 0.00 0.00 0.00 92 1016.2
20260510022823 6 122 1.6 1.6 0.00 0.00 0.00 92 1016.3
20260510022325 6 121 0.0 0.0 0.00 0.00 0.00 92 1016.3
20260510021826 6 121 0.0 0.0 0.00 0.00 0.00 92 1016.2
20260510021349 6 121 0.0 1.6 0.00 0.00 0.00 93 1016.2
20260510020829 6 122 0.0 1.6 0.00 0.00 0.00 92 1016.2
20260510020351 6 122 0.0 0.0 0.00 0.00 0.00 92 1016.3
20260510015832 6 121 0.0 1.6 0.00 0.00 0.00 92 1016.3
20260510015315 6 122 0.0 1.6 0.00 0.00 0.00 91 1016.4
20260510014830 7 122 0.0 1.6 0.00 0.00 0.00 91 1016.5
20260510014331 7 122 0.0 1.6 0.00 0.00 0.00 92 1016.5
20260510013831 7 122 0.0 4.8 0.00 0.00 0.00 92 1016.6
20260510013332 7 122 1.6 4.8 0.00 0.00 0.00 92 1016.6
20260510012332 7 101 0.0 0.0 0.00 0.00 0.00 92 1016.7
20260510011813 7 101 0.0 0.0 0.00 0.00 0.00 92 1016.8
20260510011316 7 101 0.0 0.0 0.00 0.00 0.00 92 1016.9
20260510010819 7 101 0.0 0.0 0.00 0.00 0.00 92 1017.0
20260510010342 7 101 0.0 0.0 0.00 0.00 0.00 92 1017.0
20260510005823 7 101 0.0 0.0 0.00 0.00 0.00 92 1017.0
20260510005346 7 101 0.0 0.0 0.00 0.00 0.00 91 1017.1
20260510004847 7 101 0.0 0.0 0.00 0.00 0.00 91 1017.2
20260510004329 7 101 0.0 0.0 0.00 0.00 0.00 92 1017.2
20260510003812 7 101 0.0 0.0 0.00 0.00 0.00 91 1017.2
20260510003314 7 101 0.0 0.0 0.00 0.00 0.00 92 1017.2
20260510002837 7 101 0.0 0.0 0.00 0.00 0.00 91 1017.2
20260510002320 7 101 0.0 0.0 0.00 0.00 0.00 91 1017.3
20260510001821 7 101 0.0 0.0 0.00 0.00 0.00 90 1017.3
20260510001322 7 101 0.0 0.0 0.00 0.00 0.00 91 1017.4
20260510000844 7 101 0.0 0.0 0.00 0.00 0.00 90 1017.5
20260510000344 7 101 0.0 0.0 0.00 0.00 0.00 90 1017.5
20260509235823 7 101 0.0 0.0 0.00 0.00 0.00 89 1017.5
20260509235323 7 101 0.0 0.0 0.00 0.00 0.00 89 1017.6
20260509234824 7 101 0.0 0.0 0.00 0.00 0.00 89 1017.6
20260509234326 7 101 0.0 0.0 0.00 0.00 0.00 90 1017.6
20260509233828 7 101 0.0 0.0 0.00 0.00 0.00 89 1017.7
20260509233323 7 101 0.0 0.0 0.00 0.00 0.00 90 1017.7
20260509232823 7 101 0.0 0.0 0.00 0.00 0.00 89 1017.8
20260509232324 7 101 0.0 0.0 0.00 0.00 0.00 89 1017.9
20260509231844 8 101 0.0 0.0 0.00 0.00 0.00 88 1018.1
20260509231324 8 101 0.0 0.0 0.00 0.00 0.00 88 1018.0
20260509230824 8 101 0.0 0.0 0.00 0.00 0.00 88 1018.1
20260509230324 8 101 0.0 0.0 0.00 0.00 0.00 88 1018.0
20260509225826 8 101 0.0 0.0 0.00 0.00 0.00 88 1018.1
20260509225347 8 101 0.0 0.0 0.00 0.00 0.00 89 1018.1
20260509224825 8 122 0.0 0.0 0.00 0.00 0.00 88 1018.1
20260509224325 8 122 0.0 0.0 0.00 0.00 0.00 89 1018.2
20260509223825 8 122 0.0 0.0 0.00 0.00 0.00 88 1018.2
20260509223325 8 122 0.0 0.0 0.00 0.00 0.00 87 1018.1
20260509222826 8 122 0.0 0.0 0.00 0.00 0.00 87 1018.2
20260509222328 8 122 0.0 0.0 0.00 0.00 0.00 88 1018.4
20260509221831 8 122 0.0 0.0 0.00 0.00 0.00 88 1018.4
20260509221334 8 122 0.0 0.0 0.00 0.00 0.00 88 1018.3
20260509220835 8 122 0.0 1.6 0.00 0.00 0.00 88 1018.3
20260509220358 8 122 0.0 1.6 0.00 0.00 0.00 88 1018.2
20260509215813 8 122 0.0 0.0 0.00 0.00 0.00 87 1018.2
20260509215318 8 122 0.0 0.0 0.00 0.00 0.00 87 1018.1
20260509214822 8 122 0.0 0.0 0.00 0.00 0.00 87 1018.1
20260509214325 8 122 0.0 0.0 0.00 0.00 0.00 86 1018.1
20260509213826 9 122 0.0 0.0 0.00 0.00 0.00 86 1018.2
20260509213346 9 122 0.0 1.6 0.00 0.00 0.00 85 1018.3
20260509212826 9 122 0.0 1.6 0.00 0.00 0.00 85 1018.3
20260509212326 10 122 0.0 1.6 0.00 0.00 0.00 85 1018.3
20260509211829 10 122 0.0 1.6 0.00 0.00 0.00 85 1018.3
20260509211314 10 122 0.0 1.6 0.00 0.00 0.00 84 1018.3
20260509210323 10 122 0.0 1.6 0.00 0.00 0.00 84 1018.3
20260509205826 10 122 0.0 1.6 0.00 0.00 0.00 83 1018.3
20260509205348 10 122 0.0 3.2 0.00 0.00 0.00 83 1018.4
20260509204828 10 126 1.6 3.2 0.00 0.00 0.00 84 1018.4
20260509204331 10 142 0.0 0.0 0.00 0.00 0.00 84 1018.5
20260509203831 10 142 0.0 0.0 0.00 0.00 0.00 84 1018.5
20260509203314 10 142 0.0 0.0 0.00 0.00 0.00 83 1018.5
20260509202816 10 142 0.0 0.0 0.00 0.00 0.00 83 1018.5
20260509202318 10 142 0.0 0.0 0.00 0.00 0.00 82 1018.5
20260509201821 10 142 0.0 0.0 0.00 0.00 0.00 80 1018.5
20260509201323 11 142 0.0 0.0 0.00 0.00 0.00 79 1018.4
20260509200825 11 142 0.0 0.0 0.00 0.00 0.00 79 1018.4
20260509200329 11 142 0.0 0.0 0.00 0.00 0.00 78 1018.4
20260509195853 11 142 0.0 0.0 0.00 0.00 0.00 77 1018.4
20260509195313 11 142 0.0 0.0 0.00 0.00 0.00 77 1018.4
20260509194816 12 142 0.0 0.0 0.00 0.00 0.00 76 1018.4
20260509194320 12 142 0.0 0.0 0.00 0.00 0.00 76 1018.4
20260509193822 12 142 0.0 0.0 0.00 0.00 0.00 76 1018.4
20260509193331 12 142 0.0 1.6 0.00 0.00 0.00 75 1018.4
20260509192832 12 142 0.0 1.6 0.00 0.00 0.00 75 1018.4
20260509192313 12 135 0.0 1.6 0.00 0.00 0.00 75 1018.3